MOLNIYA 2-9 1 07276U 74026A 21111.52537482 -.00000038 00000-0 00000+0 0 9994 2 07276 64.2061 289.8165 6690236 285.7365 13.9756 2.45094331239040 MOLNIYA 2-10 1 07376U 74056A 21110.31238315 .00001054 00000-0 00000-0 0 9996 2 07376 63.6643 137.6594 6669928 290.1621 12.9527 2.01087609341844 MOLNIYA 1-S 1 07392U 74060A 21111.54601483 .00000027 00000-0 00000-0 0 9994 2 07392 6.1571 289.2053 0009882 188.5685 348.5198 1.00336626115293 MOLNIYA 1-29 1 07780U 75036A 21111.47627891 -.00000202 00000-0 -22345-1 0 9996 2 07780 63.2395 267.1188 7200642 289.5346 9.9476 2.00642502337158 MOLNIYA 2-14 1 08195U 75081A 21109.58840814 .00001027 00000-0 -24940-1 0 9996 2 08195 63.2910 237.2086 7085165 294.0563 9.6559 2.02058372334345 MOLNIYA 1-32 1 08601U 76006A 21109.06639381 -.00001348 00000-0 11810-3 0 9994 2 08601 63.1120 1.2241 7412643 281.8202 10.5774 2.00065329 44188 MOLNIYA 1-36 1 09880U 77021A 21110.64563847 -.00000421 00000-0 -88274-3 0 9991 2 09880 63.1063 330.6842 7414369 287.8118 9.2238 2.00933886220929 MOLNIYA 3-8 1 10455U 77105A 21110.94190505 .00000638 00000-0 -64638-3 0 9991 2 10455 62.7156 64.1687 7364662 279.4096 11.4975 2.00833398318664 MOLNIYA 1-40 1 10925U 78055A 21111.07164041 .00000882 00000-0 00000-0 0 9999 2 10925 62.6999 107.0731 7138125 279.1204 13.0227 2.00648165314208 MOLNIYA 3-10 1 11057U 78095A 21111.47162737 -.00000213 00000-0 -29322-3 0 9995 2 11057 62.8334 197.2699 5866958 304.6383 13.2311 4.09822423366447 MOLNIYA 3-13 1 11896U 80063A 21110.27996203 .00000534 00000-0 00000-0 0 9997 2 11896 62.6138 189.9706 7052712 276.0914 14.5394 2.00641858298612 MOLNIYA 1-49 1 12156U 81009A 21110.27144044 -.00000602 00000-0 20112-2 0 9991 2 12156 61.7769 227.9265 7182145 256.5890 20.9427 2.05706250212780 MOLNIYA 1-52 1 13012U 81123A 21109.63311324 -.00000996 00000-0 00000+0 0 9992 2 13012 62.7714 342.6972 7307971 249.8523 23.0190 2.00429173288142 MOLNIYA 1-53 1 13070U 82015A 21111.39020380 -.00001652 00000-0 -36388-2 0 9994 2 13070 62.5102 271.7020 7311948 279.8802 11.5621 2.00730955286796 MOLNIYA 3-20 1 13875U 83015A 21110.91240416 .00000600 00000-0 00000-0 0 9999 2 13875 63.2552 57.7188 7311451 255.7818 20.0192 2.00408588215235 MOLNIYA 1-56 1 13890U 83019A 21111.44055941 .00000806 00000-0 00000-0 0 9994 2 13890 63.1233 83.3226 7306739 261.2442 348.9877 1.99828576278155 MOLNIYA 1-62 1 15214U 84089A 21110.95770597 .00000755 00000-0 -93056-4 0 9991 2 15214 62.7228 87.2908 7447246 267.0222 14.3782 1.97925002235887 MOLNIYA 1-63 1 15429U 84124A 21108.24420029 -.00000734 00000-0 00000-0 0 9990 2 15429 63.7624 207.1766 6535467 263.5883 21.8730 2.00791180266228 MOLNIYA 3-24 1 15738U 85040A 21111.06596887 .00000089 00000-0 00000-0 0 9993 2 15738 63.8201 156.5674 6587745 249.2180 32.0427 2.55629430293073 MOLNIYA 3-27 1 16393U 85117A 21109.96669471 .00000099 00000-0 00000-0 0 9993 2 16393 64.6054 132.6194 6719360 252.7236 28.1055 2.12399333265182 MOLNIYA 1-69 1 17078U 86089A 21111.12204367 .00000100 00000-0 00000-0 0 9996 2 17078 64.0178 226.2606 6617330 262.9578 23.4068 2.00681638252343 MOLNIYA 3-31 1 17328U 87008A 21110.24861580 .00000559 00000-0 00000-0 0 9992 2 17328 63.7806 174.8913 6771135 257.3123 24.8281 2.00580187247378 MOLNIYA 1-71 1 18946U 88017A 21110.21327784 .00000104 00000-0 00000-0 0 9996 2 18946 63.5027 173.1261 6891439 258.7172 22.8419 2.00651937242564 MOLNIYA 1-75 1 19807U 89014A 21108.95453762 -.00000662 00000-0 00000-0 0 9995 2 19807 64.3214 334.1048 7020953 269.5772 16.8662 2.00513355235568 MOLNIYA 1-80 1 21118U 91012A 21110.70739498 -.00000824 00000-0 00000-0 0 9993 2 21118 64.8768 20.6373 6874707 282.9737 13.7407 2.05245702222300 MOLNIYA 3-40 1 21196U 91022A 21110.68984429 -.00001207 00000-0 00000-0 0 9999 2 21196 64.9495 13.9352 6911345 279.6954 14.4464 2.03016381221105 MOLNIYA 1-81 1 21426U 91043A 21108.84911128 .00000093 00000-0 00000-0 0 9990 2 21426 64.1835 38.2122 7090574 269.8816 16.2976 2.00628531218643 MOLNIYA 3-41 1 21706U 91065A 21111.09981314 .00000633 00000-0 00000-0 0 9990 2 21706 64.1183 209.9667 6709619 260.9425 23.5354 2.04342885218252 MOLNIYA 3-42 1 22178U 92067A 21110.99622530 .00000041 00000-0 00000-0 0 9990 2 22178 64.7093 262.3620 6596091 273.5560 18.8307 2.20433259 70864 MOLNIYA 1-86 1 22671U 93035A 21111.40684920 .00000081 00000-0 54908-4 0 9996 2 22671 63.1224 120.6112 4841311 1.3380 359.6239 5.62619204328553 MOLNIYA 1-87 1 22949U 93079A 21111.11280704 -.00000524 00000-0 00000-0 0 9995 2 22949 63.5106 139.0491 6786316 287.1190 13.0877 2.02883996 66365 MOLNIYA 1-88 1 23420U 94081A 21110.76863750 -.00000012 00000-0 00000-0 0 9994 2 23420 64.2536 291.7072 5953574 289.9551 17.4280 3.34495285 99568 MOLNIYA 3-47 1 23642U 95042A 21110.40480711 -.00000474 00000-0 00000-0 0 9993 2 23642 63.4403 122.2702 6824563 286.8519 12.9086 2.01935672188477 MOLNIYA 1-90 1 24960U 97054A 21111.36460592 -.00000078 00000-0 -10099-2 0 9995 2 24960 63.5891 261.4377 6284340 300.7193 12.1152 3.18685757194551 MOLNIYA 1-91 1 25485U 98054A 21111.63991758 .00000097 00000-0 22925-2 0 9992 2 25485 62.9407 217.6317 6933150 291.2665 274.0752 2.36443117168406 MOLNIYA 3-50 1 25847U 99036A 21110.86450143 .00000311 00000-0 -38847-3 0 9998 2 25847 62.6736 42.4912 7436914 278.8676 11.1748 2.00630948159636